Flag for West Bank Weather past 2 weeks in Nablus, West Bank

Now
68 °F

Clear.


Feels Like: 68 °F
Forecast: 54 / 76 °F
Wind: 5 mph from Northwest

Location: Ben Gurion International Airport

Current Time: May 30, 2015 at 11:54:38 PM

Latest Report: May 30, 2015 at 11:20 PM


Visibility: 10 mi

Pressure: 29.98 "Hg

Humidity: 69%

Dew point: 57 °F

Location of NablusLocation

Historic Weather in Nablus — Graph

°F

Nablus temperature yesterday

Maximum temperature yesterday: 79 °F (at 1:20 PM)
Minimum temperature yesterday: 68 °F (at 4:20 AM)
Average temperature yesterday: 73 °F

Past Weeks' High & Low Weather Summary

 TemperatureHumidityPressure
High109 °F (May 27, 4:20 PM)83% (May 16, 12:50 AM)30.18 "Hg (May 16, 12:50 AM)
Low59 °F (May 16, 4:50 AM)6% (May 18, 12:20 PM)29.65 "Hg (May 27, 4:50 PM)
Average78 °F52%29.89 "Hg
* Reported May 15 10:20 PM — May 30 10:20 PM, Nablus, Weather by CustomWeather, © 2015

Note: Actual official high and low records may vary slightly from our data, if they occured in-between our weather recording intervals... More about our weather records

Advertising

Nablus weather history for previous 24 hours

 ConditionsComfort  
Time TempWeatherWind HumidityBarometerVisibility
10:20 PM
Sat, May 30
70 °FClear.5 mph64%29.98 "Hg10 mi
9:50 PM70 °FClear.5 mph64%29.95 "Hg10 mi
9:20 PM70 °FClear.2 mph64%29.95 "Hg10 mi
8:50 PM72 °FClear.5 mph61%29.95 "Hg10 mi
8:20 PM72 °FSunny.6 mph61%29.95 "Hg10 mi
7:50 PM72 °FPassing clouds.6 mph61%29.95 "HgN/A
7:20 PM73 °FPassing clouds.9 mph57%29.95 "HgN/A
6:50 PM73 °FPassing clouds.9 mph61%29.92 "HgN/A
6:20 PM75 °FPassing clouds.10 mph54%29.92 "HgN/A
5:50 PM75 °FPassing clouds.10 mph54%29.92 "HgN/A
5:20 PM77 °FPassing clouds.12 mph51%29.92 "HgN/A
4:50 PM77 °FPassing clouds.13 mph51%29.92 "HgN/A
4:20 PM77 °FScattered clouds.13 mph51%29.92 "HgN/A
3:50 PM77 °FScattered clouds.14 mph54%29.92 "HgN/A
3:20 PM77 °FPartly sunny.14 mph54%29.92 "HgN/A
2:50 PM77 °FScattered clouds.14 mph54%29.92 "HgN/A
2:20 PM77 °FPartly sunny.14 mph51%29.92 "HgN/A
1:50 PM77 °FPassing clouds.13 mph51%29.95 "HgN/A
1:20 PM77 °FPassing clouds.14 mph51%29.95 "HgN/A
12:50 PM77 °FScattered clouds.15 mph54%29.95 "HgN/A
12:20 PM77 °FPassing clouds.12 mph51%29.95 "HgN/A
11:50 AM77 °FPassing clouds.10 mph51%29.95 "HgN/A
11:20 AM77 °FPassing clouds.13 mph47%29.95 "HgN/A
10:50 AM75 °FScattered clouds.12 mph54%29.95 "HgN/A
10:20 AM77 °FScattered clouds.12 mph51%29.95 "HgN/A
9:50 AM75 °FScattered clouds.12 mph57%29.92 "HgN/A
9:20 AM75 °FScattered clouds.8 mph57%29.92 "HgN/A
8:50 AM73 °FPassing clouds.8 mph61%29.92 "HgN/A
8:20 AM73 °FPassing clouds.7 mph65%29.92 "HgN/A
7:50 AM72 °FPassing clouds.8 mph69%29.92 "HgN/A
7:20 AM70 °FPassing clouds.9 mph73%29.92 "HgN/A
6:50 AM68 °FScattered clouds.8 mph78%29.92 "HgN/A
6:20 AM68 °FPassing clouds.9 mph78%29.92 "HgN/A
5:50 AM66 °FPassing clouds.9 mph83%29.89 "HgN/A
5:20 AM66 °FPassing clouds.7 mph83%29.89 "HgN/A
4:50 AM66 °FPassing clouds.7 mph78%29.89 "HgN/A
4:20 AM68 °FPassing clouds.8 mph78%29.89 "HgN/A
3:50 AM68 °FPassing clouds.7 mph78%29.89 "HgN/A
3:20 AM68 °FPassing clouds.7 mph78%29.89 "HgN/A
2:50 AM68 °FPassing clouds.7 mph78%29.89 "HgN/A
2:20 AM68 °FPassing clouds.7 mph78%29.89 "HgN/A
1:50 AM70 °FPassing clouds.7 mph73%29.89 "HgN/A
1:20 AM70 °FPassing clouds.6 mph73%29.89 "HgN/A
12:50 AM70 °FPassing clouds.5 mph73%29.89 "HgN/A
12:20 AM72 °FPassing clouds.6 mph69%29.89 "HgN/A
11:50 PM
Fri, May 29
72 °FPassing clouds.6 mph69%29.89 "HgN/A
11:20 PM72 °FPassing clouds.5 mph69%29.89 "HgN/A
Weather by CustomWeather, © 2015

See weather overviewHow to use our weather pages